QPF
0.00 0.01 0.01 0.01 0.00 0.00 0.00 0.01 0.01 0.02 0.00 0.01 0.02 0.01 0.03 0.05 0.04 0.01 0.00 0.00 0.00 0.00 0.00 0.00 0.00 0.00 0.00 0.02 0.03 0.03 0.04 0.03 0.02 0.03 0.03 0.03 0.02 0.03 0.03 0.02 0.02 0.01 0.01 0.02
0.01 0.01 0.00 0.00 0.00 0.00 0.00 0.01 0.01 0.01 0.00 0.00 0.01 0.01 0.04 0.02 0.01 0.01 0.00 0.00 0.00 0.01 0.01 0.01 0.00 0.00 0.01 0.03 0.04 0.04 0.03 0.03 0.02 0.02 0.03 0.03 0.03 0.04 0.04 0.03 0.02 0.01 0.01 0.01
0.02 0.01 0.00 0.00 0.00 0.01 0.01 0.01 0.01 0.00 0.00 0.01 0.01 0.03 0.05 0.03 0.02 0.01 0.00 0.00 0.00 0.01 0.02 0.01 0.01 0.01 0.01 0.02 0.03 0.03 0.03 0.02 0.02 0.02 0.03 0.03 0.04 0.04 0.03 0.03 0.03 0.03 0.02 0.02
0.02 0.00 0.00 0.00 0.01 0.01 0.01 0.01 0.01 0.01 0.01 0.01 0.02 0.06 0.10 0.07 0.04 0.02 0.01 0.00 0.01 0.01 0.02 0.02 0.02 0.02 0.02 0.02 0.02 0.02 0.02 0.02 0.02 0.02 0.03 0.03 0.03 0.03 0.03 0.03 0.03 0.03 0.02 0.02
0.01 0.00 0.00 0.00 0.01 0.01 0.01 0.01 0.01 0.02 0.02 0.04 0.05 0.04 0.07 0.07 0.10 0.06 0.01 0.00 0.00 0.01 0.01 0.01 0.02 0.03 0.02 0.02 0.02 0.03 0.02 0.02 0.02 0.02 0.03 0.03 0.03 0.03 0.02 0.02 0.03 0.03 0.02 0.03
0.01 0.01 0.01 0.01 0.01 0.01 0.01 0.03 0.03 0.02 0.03 0.07 0.07 0.05 0.08 0.06 0.07 0.07 0.02 0.00 0.00 0.00 0.00 0.01 0.02 0.02 0.01 0.01 0.02 0.02 0.03 0.03 0.02 0.02 0.02 0.02 0.03 0.03 0.04 0.05 0.06 0.05 0.05 0.05
0.00 0.01 0.01 0.01 0.01 0.00 0.01 0.05 0.07 0.06 0.04 0.03 0.02 0.05 0.06 0.02 0.01 0.02 0.02 0.01 0.00 0.00 0.00 0.00 0.01 0.01 0.01 0.01 0.01 0.02 0.04 0.03 0.02 0.02 0.02 0.02 0.03 0.04 0.04 0.04 0.05 0.04 0.04 0.05
0.01 0.01 0.01 0.01 0.00 0.00 0.00 0.03 0.07 0.06 0.05 0.03 0.02 0.03 0.02 0.01 0.01 0.01 0.03 0.03 0.01 0.00 0.00 0.00 0.00 0.00 0.01 0.01 0.01 0.02 0.02 0.03 0.03 0.03 0.03 0.03 0.03 0.03 0.03 0.04 0.04 0.04 0.05 0.05
0.02 0.01 0.01 0.01 0.00 0.00 0.01 0.03 0.04 0.03 0.03 0.05 0.04 0.05 0.02 0.01 0.00 0.00 0.01 0.03 0.03 0.01 0.00 0.00 0.01 0.01 0.00 0.01 0.02 0.02 0.03 0.03 0.02 0.03 0.03 0.03 0.02 0.02 0.02 0.03 0.05 0.05 0.05 0.04
0.05 0.02 0.02 0.01 0.00 0.00 0.01 0.01 0.01 0.02 0.03 0.05 0.07 0.09 0.06 0.02 0.01 0.00 0.00 0.02 0.05 0.02 0.01 0.01 0.01 0.01 0.01 0.01 0.03 0.04 0.04 0.03 0.03 0.04 0.04 0.03 0.02 0.01 0.02 0.04 0.05 0.04 0.03 0.02
0.02 0.03 0.02 0.01 0.00 0.00 0.00 0.01 0.01 0.01 0.03 0.06 0.08 0.07 0.03 0.01 0.01 0.00 0.00 0.01 0.04 0.02 0.00 0.00 0.01 0.01 0.01 0.01 0.03 0.05 0.04 0.04 0.05 0.05 0.05 0.03 0.02 0.01 0.03 0.05 0.05 0.05 0.04 0.03
0.01 0.02 0.02 0.01 0.01 0.01 0.01 0.01 0.01 0.02 0.02 0.03 0.06 0.08 0.02 0.01 0.01 0.00 0.00 0.00 0.01 0.00 0.00 0.00 0.00 0.00 0.01 0.02 0.03 0.04 0.04 0.04 0.04 0.05 0.04 0.03 0.02 0.04 0.07 0.08 0.08 0.05 0.03 0.02
0.00 0.02 0.05 0.03 0.02 0.01 0.01 0.01 0.00 0.00 0.01 0.03 0.06 0.06 0.01 0.02 0.03 0.01 0.00 0.00 0.01 0.01 0.01 0.00 0.00 0.00 0.00 0.01 0.02 0.03 0.04 0.04 0.05 0.06 0.05 0.05 0.07 0.09 0.10 0.11 0.08 0.04 0.02 0.02
0.00 0.01 0.05 0.07 0.04 0.02 0.01 0.00 0.00 0.00 0.01 0.05 0.08 0.07 0.03 0.03 0.04 0.02 0.00 0.00 0.01 0.01 0.03 0.02 0.00 0.00 0.00 0.00 0.01 0.03 0.03 0.04 0.05 0.07 0.08 0.09 0.11 0.11 0.09 0.07 0.05 0.03 0.02 0.02
0.00 0.02 0.02 0.03 0.02 0.01 0.01 0.01 0.01 0.00 0.00 0.03 0.06 0.09 0.06 0.02 0.02 0.02 0.03 0.03 0.01 0.01 0.04 0.01 0.00 0.00 0.00 0.00 0.00 0.01 0.02 0.04 0.06 0.08 0.09 0.10 0.09 0.06 0.05 0.04 0.03 0.02 0.02 0.01
0.00 0.02 0.02 0.01 0.01 0.01 0.02 0.02 0.03 0.03 0.02 0.02 0.04 0.08 0.09 0.03 0.01 0.03 0.03 0.04 0.02 0.03 0.03 0.01 0.00 0.00 0.00 0.00 0.01 0.01 0.02 0.04 0.04 0.04 0.04 0.05 0.05 0.04 0.04 0.03 0.03 0.02 0.02 0.02
0.01 0.01 0.02 0.02 0.00 0.01 0.03 0.04 0.04 0.05 0.07 0.02 0.02 0.03 0.02 0.01 0.01 0.02 0.02 0.01 0.02 0.03 0.02 0.00 0.00 0.01 0.01 0.01 0.01 0.02 0.02 0.03 0.02 0.02 0.03 0.04 0.04 0.03 0.03 0.03 0.03 0.03 0.03 0.03
0.01 0.01 0.02 0.02 0.01 0.02 0.03 0.02 0.02 0.04 0.06 0.02 0.02 0.02 0.01 0.00 0.01 0.01 0.01 0.01 0.01 0.01 0.01 0.00 0.00 0.01 0.01 0.01 0.01 0.01 0.01 0.01 0.01 0.01 0.02 0.03 0.03 0.03 0.03 0.05 0.05 0.05 0.03 0.03
0.00 0.01 0.02 0.02 0.01 0.02 0.03 0.02 0.02 0.03 0.03 0.02 0.01 0.01 0.01 0.00 0.02 0.02 0.01 0.00 0.00 0.01 0.00 0.00 0.00 0.01 0.01 0.01 0.01 0.01 0.01 0.01 0.01 0.01 0.01 0.02 0.03 0.03 0.03 0.03 0.04 0.05 0.05 0.04
0.00 0.00 0.01 0.02 0.02 0.03 0.03 0.01 0.01 0.03 0.04 0.02 0.01 0.01 0.01 0.01 0.02 0.04 0.02 0.00 0.00 0.00 0.00 0.00 0.01 0.01 0.01 0.01 0.01 0.00 0.00 0.01 0.01 0.01 0.01 0.01 0.02 0.03 0.03 0.04 0.05 0.06 0.07 0.06
0.01 0.01 0.02 0.02 0.02 0.02 0.02 0.01 0.00 0.02 0.04 0.03 0.01 0.00 0.00 0.01 0.01 0.02 0.02 0.03 0.01 0.01 0.01 0.01 0.01 0.01 0.01 0.01 0.01 0.01 0.01 0.01 0.01 0.01 0.01 0.02 0.02 0.03 0.03 0.05 0.06 0.07 0.06 0.07
0.01 0.01 0.01 0.02 0.02 0.03 0.02 0.04 0.02 0.02 0.02 0.01 0.01 0.00 0.00 0.00 0.01 0.01 0.02 0.06 0.05 0.01 0.01 0.01 0.01 0.01 0.01 0.01 0.01 0.02 0.03 0.02 0.01 0.02 0.02 0.03 0.03 0.02 0.02 0.03 0.04 0.06 0.08 0.08
0.00 0.01 0.01 0.02 0.03 0.03 0.02 0.02 0.01 0.00 0.00 0.00 0.00 0.00 0.00 0.00 0.01 0.02 0.03 0.03 0.03 0.01 0.01 0.01 0.01 0.02 0.02 0.02 0.02 0.02 0.03 0.03 0.03 0.03 0.03 0.03 0.03 0.02 0.02 0.03 0.03 0.03 0.05 0.06
0.00 0.00 0.00 0.01 0.01 0.02 0.04 0.02 0.00 0.00 0.00 0.00 0.00 0.00 0.00 0.00 0.00 0.01 0.02 0.04 0.02 0.02 0.01 0.02 0.02 0.03 0.02 0.02 0.03 0.03 0.03 0.03 0.03 0.03 0.03 0.04 0.04 0.02 0.03 0.03 0.04 0.04 0.03 0.03
0.01 0.00 0.01 0.01 0.01 0.01 0.01 0.00 0.00 0.00 0.00 0.00 0.00 0.00 0.00 0.00 0.00 0.01 0.02 0.02 0.03 0.03 0.03 0.03 0.03 0.03 0.02 0.02 0.03 0.03 0.04 0.03 0.03 0.03 0.04 0.04 0.04 0.03 0.03 0.03 0.04 0.04 0.03 0.02
0.03 0.03 0.02 0.03 0.01 0.01 0.01 0.00 0.00 0.00 0.00 0.00 0.00 0.00 0.00 0.00 0.00 0.01 0.01 0.02 0.03 0.05 0.05 0.05 0.06 0.06 0.04 0.04 0.05 0.05 0.05 0.04 0.04 0.04 0.05 0.04 0.04 0.03 0.03 0.03 0.03 0.03 0.03 0.03
MSLP
1008.79 1009.51 1010.02 1010.33 1010.49 1010.60 1010.71 1010.89 1011.16 1011.50 1011.85 1012.13 1012.29 1012.26 1012.03 1011.59 1011.00 1010.33 1009.63 1008.97 1008.41 1007.97 1007.65 1007.44 1007.32 1007.27 1007.27 1007.31 1007.38 1007.49 1007.64 1007.81 1007.98 1008.16 1008.30 1008.39 1008.43 1008.40 1008.32 1008.21 1008.09 1007.98 1007.89 1007.83
1009.44 1009.95 1010.26 1010.39 1010.42 1010.43 1010.49 1010.65 1010.93 1011.28 1011.63 1011.91 1012.05 1011.98 1011.70 1011.23 1010.62 1009.94 1009.27 1008.67 1008.18 1007.82 1007.56 1007.40 1007.31 1007.26 1007.24 1007.25 1007.31 1007.43 1007.60 1007.82 1008.07 1008.33 1008.55 1008.71 1008.78 1008.75 1008.65 1008.50 1008.33 1008.18 1008.07 1008.01
1009.85 1010.15 1010.28 1010.27 1010.21 1010.17 1010.24 1010.43 1010.73 1011.10 1011.44 1011.68 1011.74 1011.58 1011.21 1010.65 1009.99 1009.31 1008.68 1008.16 1007.78 1007.53 1007.40 1007.33 1007.31 1007.29 1007.28 1007.28 1007.32 1007.43 1007.61 1007.86 1008.17 1008.49 1008.78 1009.00 1009.11 1009.11 1009.00 1008.83 1008.63 1008.46 1008.33 1008.27
1010.01 1010.12 1010.09 1010.01 1009.93 1009.94 1010.08 1010.35 1010.72 1011.11 1011.44 1011.60 1011.55 1011.25 1010.72 1010.03 1009.28 1008.55 1007.93 1007.48 1007.21 1007.10 1007.11 1007.17 1007.25 1007.30 1007.32 1007.33 1007.36 1007.46 1007.64 1007.91 1008.24 1008.61 1008.95 1009.22 1009.38 1009.41 1009.33 1009.16 1008.96 1008.77 1008.64 1008.58
1009.95 1009.89 1009.79 1009.69 1009.69 1009.81 1010.09 1010.50 1010.97 1011.41 1011.71 1011.78 1011.58 1011.10 1010.38 1009.51 1008.61 1007.79 1007.15 1006.73 1006.54 1006.55 1006.69 1006.88 1007.07 1007.20 1007.28 1007.32 1007.36 1007.45 1007.63 1007.90 1008.25 1008.65 1009.03 1009.35 1009.56 1009.63 1009.57 1009.42 1009.23 1009.05 1008.92 1008.86
1009.74 1009.57 1009.44 1009.41 1009.53 1009.84 1010.30 1010.88 1011.48 1011.97 1012.25 1012.23 1011.87 1011.18 1010.24 1009.17 1008.09 1007.15 1006.43 1005.99 1005.83 1005.91 1006.14 1006.44 1006.73 1006.94 1007.09 1007.17 1007.24 1007.34 1007.52 1007.80 1008.16 1008.58 1008.99 1009.34 1009.59 1009.70 1009.68 1009.57 1009.40 1009.23 1009.10 1009.05
1009.47 1009.24 1009.14 1009.21 1009.50 1010.00 1010.67 1011.43 1012.14 1012.68 1012.94 1012.83 1012.31 1011.44 1010.29 1009.01 1007.75 1006.65 1005.82 1005.32 1005.14 1005.23 1005.50 1005.85 1006.20 1006.49 1006.69 1006.82 1006.93 1007.06 1007.26 1007.56 1007.94 1008.38 1008.81 1009.20 1009.48 1009.63 1009.64 1009.56 1009.42 1009.27 1009.16 1009.10
1009.21 1008.97 1008.93 1009.12 1009.57 1010.25 1011.10 1011.99 1012.80 1013.37 1013.60 1013.40 1012.76 1011.73 1010.41 1008.95 1007.53 1006.29 1005.34 1004.74 1004.49 1004.54 1004.79 1005.15 1005.52 1005.84 1006.08 1006.26 1006.42 1006.60 1006.84 1007.17 1007.59 1008.05 1008.52 1008.93 1009.24 1009.42 1009.47 1009.42 1009.31 1009.18 1009.07 1009.02
1009.02 1008.79 1008.82 1009.12 1009.70 1010.51 1011.46 1012.43 1013.27 1013.83 1014.01 1013.73 1013.00 1011.86 1010.44 1008.88 1007.35 1006.01 1004.97 1004.27 1003.93 1003.89 1004.07 1004.38 1004.72 1005.03 1005.30 1005.52 1005.73 1005.97 1006.27 1006.66 1007.12 1007.63 1008.13 1008.57 1008.92 1009.13 1009.22 1009.19 1009.10 1008.99 1008.90 1008.85
1008.88 1008.71 1008.80 1009.19 1009.84 1010.70 1011.67 1012.62 1013.41 1013.90 1014.01 1013.66 1012.87 1011.70 1010.25 1008.68 1007.14 1005.77 1004.67 1003.91 1003.47 1003.33 1003.40 1003.61 1003.88 1004.16 1004.42 1004.67 1004.93 1005.23 1005.61 1006.07 1006.60 1007.16 1007.71 1008.19 1008.57 1008.81 1008.93 1008.93 1008.86 1008.77 1008.68 1008.63
1008.77 1008.68 1008.84 1009.27 1009.93 1010.76 1011.66 1012.50 1013.15 1013.52 1013.52 1013.11 1012.30 1011.15 1009.77 1008.28 1006.82 1005.51 1004.44 1003.65 1003.15 1002.90 1002.86 1002.95 1003.12 1003.32 1003.55 1003.80 1004.10 1004.47 1004.92 1005.46 1006.06 1006.68 1007.28 1007.81 1008.22 1008.50 1008.65 1008.68 1008.64 1008.56 1008.48 1008.44
1008.66 1008.66 1008.90 1009.36 1009.99 1010.72 1011.46 1012.11 1012.58 1012.77 1012.64 1012.16 1011.35 1010.28 1009.03 1007.70 1006.41 1005.24 1004.26 1003.51 1002.99 1002.66 1002.51 1002.48 1002.53 1002.64 1002.81 1003.04 1003.36 1003.77 1004.29 1004.90 1005.56 1006.24 1006.88 1007.45 1007.90 1008.21 1008.39 1008.46 1008.45 1008.39 1008.34 1008.30
1008.51 1008.65 1008.97 1009.45 1010.02 1010.62 1011.17 1011.59 1011.82 1011.81 1011.53 1010.98 1010.20 1009.24 1008.16 1007.06 1005.99 1005.02 1004.20 1003.53 1003.03 1002.66 1002.41 1002.27 1002.20 1002.21 1002.30 1002.49 1002.80 1003.23 1003.78 1004.42 1005.13 1005.84 1006.52 1007.11 1007.59 1007.93 1008.15 1008.25 1008.28 1008.26 1008.23 1008.21
1008.33 1008.63 1009.06 1009.56 1010.07 1010.54 1010.89 1011.08 1011.07 1010.85 1010.42 1009.81 1009.06 1008.22 1007.34 1006.47 1005.65 1004.92 1004.29 1003.75 1003.30 1002.92 1002.61 1002.36 1002.18 1002.09 1002.09 1002.22 1002.48 1002.89 1003.43 1004.08 1004.78 1005.50 1006.17 1006.77 1007.26 1007.63 1007.87 1008.02 1008.09 1008.11 1008.12 1008.13
1008.16 1008.63 1009.17 1009.72 1010.20 1010.55 1010.73 1010.71 1010.48 1010.07 1009.51 1008.85 1008.13 1007.41 1006.71 1006.08 1005.52 1005.02 1004.58 1004.18 1003.81 1003.45 1003.10 1002.77 1002.50 1002.30 1002.21 1002.26 1002.45 1002.80 1003.29 1003.88 1004.54 1005.21 1005.85 1006.42 1006.90 1007.27 1007.54 1007.72 1007.84 1007.92 1007.97 1008.02
1008.05 1008.68 1009.34 1009.94 1010.41 1010.68 1010.73 1010.55 1010.15 1009.60 1008.94 1008.24 1007.56 1006.94 1006.41 1005.98 1005.63 1005.35 1005.09 1004.82 1004.53 1004.20 1003.84 1003.47 1003.12 1002.84 1002.65 1002.60 1002.70 1002.95 1003.35 1003.84 1004.41 1004.99 1005.55 1006.06 1006.50 1006.86 1007.13 1007.34 1007.51 1007.63 1007.74 1007.82
1008.05 1008.81 1009.56 1010.21 1010.67 1010.90 1010.87 1010.59 1010.09 1009.44 1008.73 1008.02 1007.38 1006.86 1006.46 1006.19 1006.02 1005.90 1005.78 1005.64 1005.42 1005.13 1004.78 1004.38 1003.98 1003.63 1003.36 1003.21 1003.21 1003.35 1003.61 1003.98 1004.40 1004.86 1005.31 1005.72 1006.09 1006.41 1006.68 1006.90 1007.10 1007.27 1007.41 1007.53
1008.19 1009.02 1009.81 1010.47 1010.93 1011.14 1011.07 1010.74 1010.21 1009.54 1008.82 1008.14 1007.56 1007.12 1006.83 1006.68 1006.63 1006.62 1006.61 1006.55 1006.40 1006.15 1005.81 1005.41 1004.99 1004.59 1004.26 1004.04 1003.93 1003.94 1004.06 1004.28 1004.55 1004.85 1005.16 1005.45 1005.73 1005.98 1006.22 1006.44 1006.64 1006.83 1007.00 1007.14
1008.48 1009.28 1010.04 1010.68 1011.11 1011.29 1011.22 1010.89 1010.37 1009.74 1009.08 1008.47 1007.96 1007.60 1007.40 1007.34 1007.37 1007.44 1007.49 1007.48 1007.38 1007.16 1006.85 1006.46 1006.04 1005.63 1005.27 1004.98 1004.78 1004.68 1004.67 1004.73 1004.84 1004.98 1005.13 1005.30 1005.46 1005.63 1005.81 1005.99 1006.17 1006.36 1006.53 1006.67
1008.87 1009.57 1010.23 1010.77 1011.14 1011.29 1011.21 1010.92 1010.47 1009.92 1009.36 1008.85 1008.45 1008.19 1008.06 1008.07 1008.15 1008.26 1008.34 1008.36 1008.28 1008.10 1007.82 1007.46 1007.06 1006.66 1006.28 1005.96 1005.70 1005.50 1005.37 1005.30 1005.25 1005.24 1005.24 1005.26 1005.31 1005.37 1005.47 1005.58 1005.72 1005.87 1006.01 1006.13
1009.32 1009.84 1010.34 1010.74 1011.01 1011.10 1011.03 1010.79 1010.43 1010.01 1009.58 1009.21 1008.94 1008.78 1008.74 1008.79 1008.91 1009.03 1009.12 1009.15 1009.09 1008.92 1008.67 1008.34 1007.98 1007.60 1007.23 1006.89 1006.60 1006.34 1006.12 1005.92 1005.75 1005.59 1005.45 1005.34 1005.25 1005.20 1005.19 1005.22 1005.28 1005.35 1005.43 1005.50
1009.77 1010.08 1010.38 1010.61 1010.75 1010.78 1010.70 1010.52 1010.27 1009.99 1009.73 1009.52 1009.39 1009.35 1009.38 1009.49 1009.62 1009.74 1009.83 1009.84 1009.77 1009.61 1009.38 1009.09 1008.76 1008.41 1008.07 1007.73 1007.42 1007.11 1006.82 1006.54 1006.26 1005.98 1005.71 1005.46 1005.24 1005.07 1004.93 1004.84 1004.79 1004.77 1004.76 1004.75
1010.19 1010.30 1010.39 1010.44 1010.45 1010.41 1010.32 1010.20 1010.07 1009.95 1009.85 1009.81 1009.82 1009.90 1010.01 1010.16 1010.30 1010.41 1010.46 1010.45 1010.36 1010.19 1009.97 1009.69 1009.39 1009.08 1008.76 1008.43 1008.11 1007.78 1007.44 1007.08 1006.70 1006.32 1005.94 1005.57 1005.22 1004.91 1004.64 1004.41 1004.23 1004.08 1003.95 1003.85
1010.58 1010.51 1010.43 1010.32 1010.22 1010.12 1010.04 1009.98 1009.96 1009.97 1010.04 1010.15 1010.30 1010.48 1010.66 1010.83 1010.97 1011.05 1011.06 1011.00 1010.88 1010.69 1010.46 1010.19 1009.90 1009.60 1009.30 1008.98 1008.65 1008.30 1007.91 1007.49 1007.05 1006.57 1006.08 1005.59 1005.12 1004.67 1004.26 1003.88 1003.55 1003.26 1003.01 1002.79
1010.95 1010.77 1010.56 1010.35 1010.17 1010.03 1009.96 1009.96 1010.04 1010.18 1010.38 1010.62 1010.88 1011.13 1011.36 1011.54 1011.65 1011.69 1011.65 1011.54 1011.36 1011.14 1010.88 1010.60 1010.31 1010.01 1009.71 1009.39 1009.05 1008.67 1008.25 1007.78 1007.26 1006.71 1006.12 1005.52 1004.93 1004.35 1003.80 1003.28 1002.80 1002.37 1001.98 1001.65
1011.33 1011.10 1010.83 1010.57 1010.35 1010.22 1010.17 1010.23 1010.39 1010.63 1010.93 1011.25 1011.58 1011.88 1012.12 1012.28 1012.36 1012.34 1012.24 1012.06 1011.83 1011.56 1011.27 1010.97 1010.66 1010.36 1010.05 1009.72 1009.36 1008.95 1008.49 1007.97 1007.40 1006.77 1006.11 1005.41 1004.71 1004.02 1003.34 1002.69 1002.07 1001.50 1000.99 1000.54
Thickness
5855 5842 5830 5839 5851 5853 5852 5847 5839 5846 5861 5849 5837 5835 5841 5846 5843 5837 5834 5833 5829 5828 5831 5830 5827 5825 5820 5814 5810 5806 5803 5802 5800 5797 5795 5792 5791 5792 5791 5791 5789 5786 5784 5783
5839 5836 5852 5861 5863 5859 5853 5843 5841 5852 5862 5851 5837 5834 5842 5844 5842 5842 5839 5835 5833 5830 5829 5827 5826 5824 5819 5814 5810 5807 5804 5803 5801 5799 5797 5795 5793 5793 5792 5791 5789 5787 5785 5783
5830 5847 5863 5857 5854 5851 5847 5843 5842 5845 5854 5854 5841 5822 5827 5838 5842 5845 5846 5844 5841 5835 5829 5827 5824 5822 5820 5815 5812 5810 5806 5804 5802 5801 5799 5797 5794 5792 5789 5788 5787 5786 5785 5783
5843 5859 5860 5851 5849 5849 5837 5855 5852 5848 5837 5827 5833 5799 5812 5823 5829 5836 5840 5843 5843 5840 5836 5831 5827 5823 5821 5818 5816 5812 5808 5805 5803 5802 5798 5793 5789 5786 5786 5786 5786 5785 5784 5783
5838 5852 5851 5845 5852 5856 5848 5864 5856 5848 5833 5822 5826 5812 5809 5824 5817 5826 5836 5842 5844 5844 5840 5835 5831 5827 5825 5822 5818 5813 5809 5806 5804 5801 5798 5794 5791 5789 5788 5787 5785 5784 5783 5782
5845 5861 5860 5856 5864 5866 5865 5858 5849 5844 5830 5803 5820 5814 5806 5821 5824 5827 5836 5843 5844 5845 5843 5839 5835 5831 5826 5824 5819 5815 5809 5805 5803 5801 5798 5794 5790 5788 5786 5784 5782 5782 5782 5781
5830 5846 5861 5865 5851 5859 5857 5833 5810 5802 5801 5806 5833 5821 5816 5836 5845 5843 5841 5842 5847 5847 5843 5837 5832 5828 5825 5822 5819 5815 5809 5804 5803 5800 5798 5795 5791 5789 5785 5783 5781 5780 5779 5778
5813 5819 5847 5858 5848 5843 5845 5836 5804 5788 5792 5807 5825 5815 5828 5847 5853 5854 5851 5847 5845 5846 5843 5837 5833 5829 5826 5823 5819 5815 5809 5804 5802 5799 5797 5795 5792 5789 5787 5784 5782 5780 5779 5778
5818 5823 5853 5860 5864 5855 5836 5833 5841 5820 5808 5800 5808 5814 5829 5843 5844 5845 5845 5844 5842 5841 5841 5837 5834 5830 5827 5823 5820 5816 5810 5804 5801 5799 5796 5793 5791 5788 5785 5783 5781 5779 5777 5777
5831 5817 5840 5855 5859 5857 5851 5845 5834 5817 5794 5785 5800 5800 5803 5820 5828 5837 5839 5838 5839 5839 5837 5836 5833 5830 5828 5825 5822 5818 5812 5806 5802 5799 5795 5792 5789 5786 5784 5781 5778 5776 5774 5772
5836 5817 5824 5837 5832 5831 5838 5836 5831 5823 5816 5794 5781 5793 5833 5831 5833 5835 5837 5838 5836 5835 5835 5834 5831 5829 5827 5824 5821 5815 5811 5805 5801 5797 5793 5790 5787 5784 5781 5778 5775 5773 5770 5768
5834 5822 5812 5826 5849 5856 5846 5838 5832 5811 5804 5804 5793 5792 5841 5840 5840 5842 5838 5837 5836 5835 5834 5832 5830 5826 5822 5819 5816 5813 5810 5804 5800 5796 5791 5787 5784 5781 5777 5774 5771 5769 5767 5764
5830 5813 5793 5800 5818 5835 5833 5837 5839 5834 5819 5800 5790 5794 5838 5838 5836 5839 5837 5834 5831 5829 5828 5828 5824 5820 5817 5814 5812 5809 5805 5801 5798 5794 5788 5784 5780 5777 5773 5770 5768 5765 5763 5760
5832 5812 5795 5786 5798 5816 5819 5828 5835 5829 5811 5798 5794 5799 5816 5823 5825 5830 5832 5830 5827 5823 5821 5818 5815 5813 5811 5809 5806 5803 5800 5798 5794 5790 5785 5779 5776 5773 5770 5767 5764 5761 5759 5756
5825 5802 5802 5805 5816 5821 5820 5824 5828 5823 5820 5802 5794 5799 5809 5820 5825 5827 5827 5825 5820 5816 5813 5810 5807 5805 5804 5802 5800 5798 5795 5792 5790 5785 5780 5776 5774 5770 5766 5763 5760 5757 5754 5752
5816 5798 5799 5799 5813 5816 5813 5821 5823 5823 5823 5812 5806 5804 5821 5829 5827 5823 5821 5818 5812 5809 5805 5803 5801 5798 5796 5795 5793 5791 5788 5786 5784 5779 5775 5773 5769 5765 5761 5758 5754 5751 5748 5746
5807 5793 5783 5785 5806 5804 5791 5810 5818 5820 5825 5820 5805 5808 5823 5820 5815 5813 5813 5811 5805 5801 5799 5796 5794 5792 5790 5789 5787 5785 5783 5781 5777 5773 5770 5767 5763 5759 5755 5753 5749 5745 5742 5739
5799 5789 5784 5785 5787 5764 5795 5826 5823 5819 5820 5825 5819 5818 5818 5814 5814 5815 5812 5805 5801 5798 5795 5791 5790 5787 5786 5785 5783 5781 5778 5774 5770 5766 5764 5761 5757 5753 5749 5745 5741 5738 5735 5731
5806 5790 5781 5778 5771 5772 5796 5812 5818 5808 5803 5815 5813 5812 5813 5813 5807 5801 5806 5803 5798 5794 5791 5788 5786 5783 5780 5778 5776 5773 5770 5766 5761 5758 5756 5754 5751 5746 5743 5738 5734 5731 5727 5724
5799 5793 5778 5773 5761 5757 5782 5811 5824 5812 5787 5807 5810 5807 5807 5804 5784 5781 5795 5796 5792 5789 5786 5782 5779 5775 5772 5770 5769 5764 5761 5757 5754 5752 5750 5748 5745 5741 5736 5732 5728 5724 5720 5717
5775 5774 5770 5767 5762 5770 5795 5812 5811 5778 5773 5799 5805 5803 5799 5791 5786 5787 5789 5785 5783 5781 5779 5776 5771 5766 5763 5762 5760 5755 5752 5749 5748 5747 5744 5740 5737 5734 5730 5727 5722 5718 5714 5710
5769 5765 5763 5763 5753 5756 5793 5797 5782 5776 5793 5797 5797 5795 5790 5787 5786 5783 5779 5775 5772 5770 5768 5766 5761 5757 5756 5755 5751 5746 5743 5743 5741 5739 5736 5733 5729 5727 5725 5719 5715 5712 5707 5702
5776 5774 5771 5765 5761 5774 5787 5783 5786 5791 5788 5789 5789 5787 5784 5779 5775 5772 5768 5765 5763 5761 5759 5757 5752 5748 5747 5745 5742 5738 5737 5736 5734 5730 5726 5724 5721 5719 5716 5712 5708 5704 5700 5696
5775 5782 5773 5765 5767 5772 5776 5781 5784 5785 5782 5783 5783 5780 5776 5769 5766 5762 5759 5755 5753 5751 5749 5746 5743 5739 5736 5736 5735 5732 5730 5729 5725 5721 5717 5715 5712 5709 5707 5705 5702 5697 5694 5690
5761 5767 5762 5756 5760 5764 5766 5770 5774 5775 5777 5776 5774 5772 5767 5761 5757 5753 5748 5745 5743 5741 5739 5737 5733 5729 5727 5727 5725 5723 5721 5719 5715 5712 5709 5707 5704 5702 5699 5697 5693 5690 5686 5683
5755 5754 5749 5746 5754 5755 5753 5763 5768 5765 5764 5763 5761 5758 5757 5754 5748 5744 5739 5737 5734 5732 5730 5727 5724 5720 5718 5717 5715 5714 5712 5709 5706 5703 5700 5699 5697 5694 5692 5688 5685 5682 5679 5676